Location: Cabanac
(43.2707°N, 0.2288°E)
Time: 10:15:16
(UTC+00:00)

Daily predictions for brighter satellites

Satellite Brightness Start Highest point End
(mag) Time Altitude Azimuth Time Altitude Azimuth Time Altitude Azimuth
NOAA 6 4.3 16:47:57 10° S 16:53:05 76° WSW 16:58:14 10° NNW
Cosmos 2279 Rocket 4.0 16:49:34 10° N 16:55:53 80° E 17:02:08 10° S
COSMOS 2428 2.8 16:50:36 10° SSW 16:56:16 89° WNW 17:02:01 10° NNE
COBE Rocket 4.4 16:52:01 10° NNE 16:56:21 37° E 17:00:40 10° SSE
Cosmos 304 Rocket 3.8 16:51:42 10° NNW 16:56:33 86° ENE 17:01:21 10° SSE
Cosmos 1536 4.0 16:53:21 10° NNE 16:56:36 23° ENE 16:59:49 10° SE
BREEZE-M R/B 4.1 16:50:20 10° W 16:57:03 43° NNW 17:00:32 10° ENE
ATLAS 3B R/B 3.2 16:50:53 10° NW 16:57:33 66° WSW 17:04:23 10° SSE
USA 267 3.3 16:51:20 10° ESE 16:57:51 74° NE 17:04:23 10° NW
CZ-4B R/B 3.6 16:55:18 10° N 16:58:18 27° WNW 17:01:17 10° SW
NOSS 3-4 (A) 4.2 16:55:30 10° WSW 17:01:18 48° NW 17:07:29 10° NNE
NOSS 3-4 (C) 4.2 16:55:35 10° WSW 17:01:24 48° NW 17:07:35 10° NNE
Shenzhou-11 Module 1.7 16:59:06 10° W 17:01:51 82° S 17:04:35 10° E
Meteor 1-5 Rocket 4.2 16:57:22 10° N 17:02:52 61° ENE 17:08:10 10° SSE
STARLINK-46 3.5 17:01:30 10° W 17:04:00 36° NNW 17:06:31 10° NE
Lacrosse 5 rocket 1.5 17:02:51 10° SW 17:07:12 80° NW 17:11:20 10° NE
AQUARIUS 4.3 17:04:17 10° SSE 17:08:38 51° ENE 17:13:01 10° N
CZ-4 R/B 2.9 17:08:40 10° E 17:10:49 14° ENE 17:12:58 10° NNE
Aureole 1 Rocket 4.0 17:10:57 10° SE 17:12:46 15° E 17:13:53 13° ENE
CZ-4B R/B 4.3 17:08:30 10° S 17:13:37 49° W 17:18:52 10° NNW
Nadezhda 4 Rocket 4.1 17:08:32 10° SSE 17:14:41 57° E 17:20:52 10° NNE
COSMO-SKYMED 1 3.9 17:11:56 10° NE 17:15:15 21° E 17:18:33 10° SE
SL-4 R/B 2.8 17:12:19 10° W 17:15:47 36° NNW 17:19:09 12° NE
PSLV R/B 4.1 17:14:41 10° N 17:18:52 78° WNW 17:22:58 10° SSW
Cosmos 1666 3.6 17:16:29 10° NNE 17:19:38 25° ENE 17:22:46 10° SE
YAOGAN 1 4.0 17:19:14 10° ESE 17:22:04 17° ENE 17:24:55 10° NNE
Cosmos 2278 Rocket 2.1 17:21:46 10° NNW 17:27:27 77° ENE 17:33:06 10° SSE
Okean 1-7 4.0 17:26:42 10° SE 17:30:14 25° E 17:32:59 14° NE
Cosmos 2360 Rocket 4.4 17:26:42 10° W 17:30:45 20° NW 17:34:49 10° N
FALCON 9 DEB 4.0 17:27:44 10° SSW 17:30:58 36° SE 17:32:52 20° E
BREEZE-M DEB (TANK) 2.3 17:29:40 10° WNW 17:32:12 56° SSW 17:34:27 10° SE
Cosmos 1733 Rocket 3.4 17:31:37 10° NNW 17:35:59 69° W 17:40:21 10° S
Cosmos 2026 Rocket 4.4 17:31:36 10° SSE 17:37:06 37° E 17:42:35 10° NNE
Centaur D-1A AC-31 3.8 17:37:29 10° S 17:39:23 13° SSE 17:42:05 10° SE
ATLAS 2AS CENTAUR R/B 4.3 17:32:37 10° W 17:39:38 32° NW 17:46:37 10° NNE
Cosmos 2369 Rocket 4.0 17:38:09 10° NNE 17:39:54 12° NE 17:39:54 12° NE
SL-16 R/B 3.0 17:36:04 10° SSE 17:40:59 31° ESE 17:44:01 19° ENE
NOAA 12 4.0 17:40:01 10° SSE 17:45:19 81° ENE 17:50:38 10° NNW
Cosmos 2333 Rocket 3.6 17:42:48 10° WSW 17:48:03 36° NW 17:53:21 10° N
BREEZE-M DEB (TANK) 2.4 17:46:59 10° W 17:51:42 57° N 17:52:48 34° ENE
Cosmos 2237 Rocket 2.3 17:46:23 10° SSW 17:52:05 81° WNW 17:57:42 11° NNE
Cosmos 1812 3.8 17:48:39 10° SSW 17:52:21 45° WNW 17:56:06 10° N
STARLINK-52 3.6 17:49:36 10° SSW 17:52:58 45° SE 17:53:56 35° E
STARLINK-29 3.3 17:57:39 10° SW 18:01:07 61° SE 18:01:54 46° E
Cosmos 921 Rocket 3.3 17:58:38 10° N 18:02:40 40° ENE 18:04:17 28° ESE
Sich 1 Rocket 4.0 17:58:38 10° N 18:02:44 37° ENE 18:06:47 10° SE
SKYMED 2 3.5 18:00:06 15° NNE 18:03:37 68° E 18:07:56 10° S
Cosmos 1627 Rocket 4.4 17:58:04 10° S 18:04:04 66° E 18:10:09 10° NNE
Cosmos 2251 Rocket 4.5 17:59:51 10° SW 18:04:57 47° WNW 18:10:04 10° N
Cosmos 1782 Rocket 3.6 18:01:32 10° N 18:05:48 52° ENE 18:10:02 10° SSE
Cosmos 2219 Rocket 4.0 18:01:59 10° WSW 18:06:41 27° NW 18:11:26 10° N
USA 215 4.2 18:02:28 17° NE 18:06:54 36° NNW 18:12:44 10° W
YAOGAN 6 2.4 18:03:52 10° SSE 18:07:22 80° ENE 18:10:58 10° N
Cosmos 1174 4.3 18:06:50 10° SSW 18:12:00 55° ESE 18:13:06 43° ENE
Cosmos 2195 Rocket 4.4 18:07:28 10° S 18:13:41 85° E 18:19:59 10° N
Cosmos 614 Rocket 3.9 18:09:35 10° S 18:14:34 57° ESE 18:16:22 36° NE
Cosmos 1703 Rocket 3.6 18:11:04 10° S 18:15:32 86° W 18:19:20 14° N
ISS -2.5 18:13:42 10° WNW 18:16:53 40° SW 18:18:22 25° SSE
Envisat 3.6 18:14:17 10° S 18:19:16 59° W 18:24:18 10° NNW
ATLAS 5 CENTAUR R/B 2.8 18:18:44 10° W 18:20:19 21° NW 18:20:19 21° NW
Cosmos 1092 Rocket 4.2 18:15:04 10° SSW 18:21:21 71° W 18:27:38 10° N
Cosmos 1943 Rocket 3.5 18:18:12 10° N 18:21:11 23° NNE 18:21:11 23° NNE
STARLINK-60 3.5 18:20:46 10° WSW 18:24:03 54° NW 18:24:03 54° NW
Cosmos 1441 Rocket 3.3 18:23:33 10° NNW 18:27:23 74° W 18:31:08 10° S
CSL-04 Rocket 3.4 18:22:22 10° SSE 18:27:37 77° ENE 18:32:55 10° N
Okean-O 4.2 18:24:52 10° SSW 18:28:57 37° W 18:33:05 10° NNW
Cosmos 1140 Rocket 3.6 18:24:36 10° S 18:29:29 50° ESE 18:29:29 50° ESE
Cosmos 407 Rocket 3.3 18:24:43 10° SSW 18:29:52 75° ESE 18:31:32 44° NNE
Cosmos 2297 3.5 18:24:31 10° NNW 18:30:15 77° ENE 18:35:26 12° SSE
Meteor 1-18 Rocket 4.1 18:27:25 10° S 18:33:08 75° E 18:36:16 28° NNE
Shenzhou-11 Module 4.2 18:34:17 10° W 18:35:34 24° W 18:35:34 24° W
Cosmos 1023 Rocket 4.3 18:35:36 10° S 18:40:30 66° ESE 18:40:30 66° ESE
Cosmos 1867 4.0 18:36:11 10° NNW 18:40:36 44° NNE 18:40:36 44° NNE
CSL-04 Debris 4.2 18:37:14 10° S 18:42:42 79° WSW 18:48:10 10° NNW
OAO 3 Rocket 4.4 18:40:41 10° WSW 18:44:50 30° S 18:45:14 30° S
CZ-4 R/B 2.3 18:41:43 10° S 18:45:29 46° W 18:49:14 10° NNW
Lacrosse 5 rocket 3.3 18:43:50 10° WNW 18:46:54 19° NNW 18:47:04 19° NNW
Genesis I 4.4 18:46:08 10° NW 18:48:34 36° NW 18:48:34 36° NW
COSMO-SKYMED 1 4.0 18:48:38 17° N 18:51:31 36° WNW 18:55:29 10° SW
Okean 1 4.1 18:50:19 10° SSW 18:53:50 50° W 18:53:50 50° W
S3M 3.8 18:48:18 10° N 18:54:32 71° E 19:00:39 10° SSE
SL-4 R/B 4.0 18:52:56 10° NW 18:54:45 20° NNW 18:54:45 20° NNW
YAOGAN 1 3.5 18:53:38 10° S 18:57:48 47° W 19:02:00 10° NNW
Meteor 2-9 Rocket 4.1 18:54:46 10° N 19:08:03 - S 19:00:31 81° NE
Meteor 2-13 Rocket 4.2 18:57:55 10° S 19:03:57 84° E 19:04:06 83° ENE
NOAA 11 4.4 18:58:57 10° S 19:04:21 68° WSW 19:09:51 10° NNW
Cosmos 1553 Rocket 4.2 19:01:48 10° NNW 19:08:08 71° W 19:14:30 10° S
SL-16 R/B 3.3 19:19:37 10° SW 19:24:56 41° WNW 19:25:57 37° NNW
Cosmos 2369 Rocket 4.0 19:20:01 10° NNW 19:21:43 20° NNW 19:21:43 20° NNW
Cosmos 2344 4.3 19:40:52 10° NW 19:50:07 66° NE 19:50:07 66° NE
Cosmos 1943 Rocket 4.5 20:01:31 10° NW 20:02:45 17° NW 20:02:45 17° NW
